GW4541 Weather Reports


time (UTC)temp
C
wind
direction
speed
KPH
gust
KPH
rain 1hr
cm
rain 24hr
cm
rain mn
cm
humidity
%
barometer
mb
20260506134055 8 72 0.0 6.4 0.08 2.74 2.72 99 1007.0
20260506132056 8 117 1.6 11.3 0.08 2.72 2.69 99 1006.8
20260506131054 8 344 3.2 6.4 0.05 2.69 2.67 99 1006.8
20260506130055 8 38 0.0 4.8 0.08 2.69 2.67 99 1006.7
20260506125055 8 44 0.0 6.4 0.05 2.67 2.64 99 1006.8
20260506123054 8 2 3.2 9.7 0.08 2.67 2.64 99 1006.7
20260506122055 7 87 0.0 11.3 0.05 2.64 2.62 99 1006.5
20260506121055 7 53 0.0 6.4 0.08 2.64 2.62 99 1006.5
20260506120055 7 46 0.0 6.4 0.05 2.62 2.59 99 1006.3
20260506115054 7 94 0.0 3.2 0.08 2.62 2.59 99 1006.2
20260506113055 7 139 1.6 11.3 0.08 2.59 2.57 99 1006.4
20260506112055 7 31 0.0 11.3 0.10 2.59 2.57 99 1006.2
20260506110055 7 176 0.0 9.7 0.10 2.57 2.54 99 1006.4
20260506105054 7 53 1.6 11.3 0.10 2.54 2.54 99 1006.4
20260506104055 7 346 1.6 6.4 0.13 2.54 2.51 99 1006.2
20260506103055 7 330 3.2 6.4 0.13 2.51 2.49 99 1006.1
20260506102054 7 103 3.2 9.7 0.13 2.49 2.49 99 1006.1
20260506101055 7 335 6.4 6.4 0.13 2.49 2.46 99 1006.0
20260506100054 7 27 3.2 11.3 0.10 2.46 2.44 99 1006.2
20260506095055 7 27 1.6 9.7 0.08 2.44 2.41 99 1006.1
20260506093055 6 58 0.0 6.4 0.03 2.39 2.36 99 1005.7
20260506092054 7 48 1.6 6.4 0.00 2.36 2.34 99 1005.7
20260506091055 6 91 0.0 6.4 0.03 2.36 2.34 99 1005.7
20260506085055 6 78 0.0 9.7 0.03 2.36 2.34 99 1005.5
20260506084054 6 56 3.2 9.7 0.03 2.36 2.34 99 1005.6
20260506083055 6 131 4.8 6.4 0.05 2.36 2.34 99 1005.6
20260506082055 6 11 3.2 14.5 0.08 2.36 2.34 99 1005.4
20260506081055 6 16 3.2 11.3 0.05 2.34 2.31 99 1005.3
20260506073055 6 322 1.6 11.3 0.13 2.31 2.29 99 1005.3
20260506072055 6 117 1.6 11.3 0.13 2.29 2.26 99 1005.3
20260506062055 8 30 3.2 6.4 0.28 2.16 2.13 99 1005.1
20260506061055 8 0 3.2 11.3 0.25 2.11 2.11 99 1004.6
20260506051056 8 13 0.0 3.2 0.18 1.85 1.83 99 1004.6
20260506045055 8 70 0.0 4.8 0.20 1.80 1.78 99 1004.8
20260506044056 8 56 0.0 6.4 0.20 1.75 1.73 99 1004.6
20260506043054 8 20 1.6 6.4 0.25 1.73 1.70 99 1004.8
20260506042055 8 46 0.0 3.2 0.28 1.70 1.68 99 1004.7
20260506041055 8 354 0.0 6.4 0.33 1.68 1.65 99 1004.7
20260506040055 8 68 0.0 4.8 0.38 1.65 1.63 99 1004.7
20260506034055 8 45 0.0 4.8 0.43 1.55 1.52 99 1004.8
20260506033055 8 84 3.2 9.7 0.43 1.47 1.45 99 1004.7
20260506032055 8 64 0.0 9.7 0.41 1.42 1.40 99 1004.8
20260506031055 8 42 1.6 6.4 0.41 1.35 1.32 99 1005.1
20260506030055 8 28 3.2 9.7 0.38 1.27 1.24 99 1005.1
20260506025055 8 356 0.0 3.2 0.36 1.22 1.19 99 1005.1
20260506023055 9 28 3.2 4.8 0.25 1.04 1.04 99 1005.3
20260506022054 9 7 0.0 4.8 0.23 0.99 0.97 99 1005.3
20260506021055 9 31 0.0 4.8 0.23 0.94 0.91 99 1005.4
20260506015055 9 46 0.0 4.8 0.23 0.86 0.84 99 1005.5
20260506014055 9 56 0.0 4.8 0.28 0.84 0.81 99 1005.7
20260506013055 9 97 0.0 6.4 0.30 0.79 0.76 99 1005.7
20260506012055 9 8 0.0 4.8 0.30 0.79 0.74 99 1005.7
20260506011055 9 120 0.0 4.8 0.30 0.74 0.69 99 1005.8
20260506010055 10 25 0.0 6.4 0.30 0.71 0.66 99 1005.8
20260506005055 10 30 1.6 4.8 0.28 0.66 0.61 99 1005.9
20260506004055 10 77 0.0 4.8 0.25 0.58 0.53 99 1005.9
20260506003055 10 80 0.0 3.2 0.20 0.51 0.46 99 1005.9
20260506002055 10 93 0.0 3.2 0.20 0.48 0.43 99 1006.2
20260506000055 10 63 0.0 9.7 0.20 0.41 0.36 99 1006.1
20260505235055 10 140 3.2 4.8 0.20 0.41 0.33 99 1006.4
20260505234054 10 67 3.2 9.7 0.20 0.36 0.28 99 1006.5
20260505233054 10 105 1.6 6.4 0.20 0.33 0.25 99 1006.4
20260505231054 10 63 1.6 6.4 0.20 0.28 0.20 99 1006.3
20260505230055 10 81 1.6 6.4 0.15 0.23 0.15 99 1006.6
20260505225055 10 19 0.0 4.8 0.13 0.20 0.13 99 1006.7
20260505224055 10 39 0.0 11.3 0.08 0.15 0.08 99 1006.6
20260505222055 10 359 4.8 9.7 0.00 0.10 0.00 99 1006.8
20260505221055 10 158 1.6 3.2 0.03 0.10 0.00 99 1007.0
20260505220056 10 34 3.2 4.8 0.03 0.10 0.00 99 1006.8
20260505214055 11 66 3.2 6.4 0.03 0.10 0.10 99 1007.1
20260505213055 11 322 4.8 9.7 0.03 0.13 0.10 99 1007.1
20260505212054 11 80 0.0 6.4 0.03 0.13 0.10 99 1007.1
20260505211054 11 73 4.8 9.7 0.00 0.10 0.08 99 1007.3
20260505210055 11 62 1.6 4.8 0.00 0.13 0.08 99 1007.2
20260505204055 11 50 0.0 11.3 0.00 0.13 0.08 99 1007.4
20260505202054 11 24 4.8 6.4 0.00 0.13 0.08 99 1007.4
20260505201055 11 27 0.0 6.4 0.00 0.13 0.08 99 1007.3
20260505200055 11 117 0.0 6.4 0.00 0.13 0.08 99 1007.3
20260505195056 11 54 0.0 9.7 0.00 0.15 0.08 99 1007.2
20260505194055 11 42 0.0 9.7 0.00 0.15 0.08 99 1007.3
20260505193055 11 31 1.6 6.4 0.00 0.18 0.08 99 1007.3
20260505192055 11 10 3.2 9.7 0.00 0.20 0.08 99 1007.2
20260505190054 11 80 0.0 9.7 0.00 0.46 0.08 99 1007.1
20260505185055 11 69 0.0 9.7 0.00 0.46 0.08 98 1007.3
20260505184055 11 16 0.0 4.8 0.00 0.46 0.08 98 1007.3
20260505183055 11 64 1.6 4.8 0.00 0.46 0.08 98 1007.4
20260505182054 11 19 1.6 9.7 0.00 0.46 0.08 98 1007.3
20260505180054 11 33 0.0 9.7 0.00 0.46 0.08 97 1007.3
20260505175054 11 66 0.0 6.4 0.00 0.46 0.08 97 1007.3
20260505174054 11 54 1.6 6.4 0.00 0.46 0.08 97 1007.5
20260505173054 11 91 1.6 3.2 0.00 0.46 0.08 97 1007.5
20260505172055 11 97 0.0 12.9 0.00 0.46 0.08 97 1007.6
20260505171055 11 88 1.6 6.4 0.00 0.46 0.08 97 1007.4
20260505170056 11 62 0.0 11.3 0.00 0.46 0.08 96 1007.5
20260505165054 11 58 1.6 11.3 0.00 0.46 0.08 96 1007.4
20260505163055 11 47 0.0 6.4 0.00 0.46 0.08 96 1007.8
20260505162054 11 77 0.0 6.4 0.00 0.46 0.08 96 1007.6
20260505161055 11 346 3.2 4.8 0.00 0.46 0.08 96 1007.7
20260505153055 11 50 0.0 6.4 0.00 0.46 0.08 96 1008.1
20260505152055 11 83 0.0 9.7 0.00 0.46 0.08 95 1008.3
20260505151055 11 62 0.0 6.4 0.00 0.46 0.08 95 1008.2